Waarnemingen

Advertentie
Mijn weer
Hohn, Duitsland (10038): temperatuur & dauwpunt: 19.02.2018 06:00:00 - 25.02.2018 06:00:00 (CET)Hohn, Duitsland (10038): temperatuur -5cm: 19.02.2018 06:00:00 - 25.02.2018 06:00:00 (CET)Hohn, Duitsland (10038): temperatuur -20cm & temperatuur -100cm: 19.02.2018 06:00:00 - 25.02.2018 06:00:00 (CET)Hohn, Duitsland (10038): windsnelheid & windstoten: 19.02.2018 06:00:00 - 25.02.2018 06:00:00 (CET)Hohn, Duitsland (10038): windrichting: 19.02.2018 06:00:00 - 25.02.2018 06:00:00 (CET)Hohn, Duitsland (10038): luchtdruk: 19.02.2018 06:00:00 - 25.02.2018 06:00:00 (CET)Hohn, Duitsland (10038): zicht: 19.02.2018 06:00:00 - 25.02.2018 06:00:00 (CET)
Datum & Tijd tt [°C] td [°C] tt -5cm [°C] tt -20cm [°C] tt -100cm [°C] ff [km/u] ff [kn] fx [km/u] fx [kn] dd ppp [hPa] vv [km]
25.02.2018 06:00:00 -3,1 -5,2 - - - 7 4 - - NO 1035,3 7
25.02.2018 05:00:00 -2,9 -6,0 - - - 11 6 - - NO 1035,3 9
25.02.2018 04:00:00 -2,5 -7,4 - - - 7 4 - - O 1035,4 20
25.02.2018 03:00:00 -2,6 -7,8 - - - 7 4 - - OZO 1035,3 20
25.02.2018 02:00:00 -2,8 -7,9 - - - 7 4 - - OZO 1035,4 20
25.02.2018 01:00:00 -2,2 -7,6 - - - 11 6 - - OZO 1035,5 20
25.02.2018 00:00:00 -1,8 -7,4 - - - 14 8 - - O 1035,5 20
24.02.2018 23:00:00 -1,7 -7,1 - - - 18 10 - - OZO 1035,3 20
24.02.2018 22:00:00 -1,3 -6,9 - - - 14 8 - - O 1035,0 20
24.02.2018 21:00:00 -1,2 -7,4 - - - 18 10 - - O 1034,8 20
24.02.2018 20:00:00 -1,1 -7,0 - - - 18 10 - - O 1034,4 20
24.02.2018 19:00:00 -1,3 -6,2 - - - 25 14 - - O 1034,5 20
24.02.2018 18:00:00 -1,0 -5,8 - - - 25 14 - - O 1034,2 20
24.02.2018 17:00:00 -0,7 -5,8 - - - 25 14 - - O 1034,0 20
24.02.2018 16:00:00 -0,3 -5,9 - - - 29 16 - - O 1034,3 20
24.02.2018 15:00:00 0,0 -6,2 0,5 0,5 - 29 16 - - O 1034,1 20
24.02.2018 14:00:00 1,4 -7,2 - - - 29 16 - - O 1033,8 20
24.02.2018 13:00:00 0,8 -9,0 - - - 32 18 - - O 1033,8 20
24.02.2018 12:00:00 0,7 -7,2 - - - 32 18 50 27 O 1033,8 20
24.02.2018 11:00:00 1,2 -5,7 - - - 29 16 - - O 1033,7 20
24.02.2018 10:00:00 0,4 -4,6 - - - 29 16 - - O 1033,2 20
24.02.2018 09:00:00 0,4 -3,4 - - - 22 12 - - O 1032,7 20
24.02.2018 08:00:00 -0,1 -2,4 -0,2 0,5 3,5 18 10 - - ONO 1032,2 15
24.02.2018 07:00:00 -0,2 -2,4 - - - 18 10 - - ONO 1031,9 15
24.02.2018 06:00:00 -0,1 -3,4 - - - 14 8 - - O 1031,6 20
24.02.2018 05:00:00 -0,3 -3,8 - - - 18 10 - - O 1031,1 20
24.02.2018 04:00:00 -0,5 -4,2 - - - 7 4 - - O 1030,8 20
24.02.2018 03:00:00 -1,4 -4,2 - - - 7 4 - - O 1030,5 20
24.02.2018 02:00:00 -2,3 -5,0 - - - 4 2 - - O 1030,4 20
24.02.2018 01:00:00 -2,8 -5,5 - - - 7 4 - - O 1030,1 20
24.02.2018 00:00:00 -4,7 -7,5 - - - 7 4 - - O 1030,1 20
23.02.2018 23:00:00 -4,3 -6,7 - - - 7 4 - - O 1029,9 20
23.02.2018 22:00:00 -3,7 -7,0 - - - 11 6 - - O 1029,6 20
23.02.2018 21:00:00 -3,0 -7,0 - - - 11 6 - - O 1029,2 20
23.02.2018 20:00:00 -2,4 -6,5 - - - 11 6 - - ONO 1028,7 20
23.02.2018 19:00:00 -1,8 -6,7 - - - 14 8 - - O 1028,8 20
23.02.2018 18:00:00 -0,8 -6,7 - - - 14 8 - - O 1028,5 20
23.02.2018 17:00:00 0,4 -7,6 - - - 25 14 - - O 1028,4 20
23.02.2018 16:00:00 0,9 -7,0 - - - 25 14 - - ONO 1028,4 20
23.02.2018 15:00:00 1,0 -6,9 0,1 0,5 - 25 14 - - O 1028,3 20
23.02.2018 14:00:00 1,0 -7,0 - - - 25 14 47 25 O 1028,6 20
23.02.2018 13:00:00 1,0 -6,9 - - - 25 14 - - O 1028,8 20
23.02.2018 12:00:00 0,7 -6,2 - - - 25 14 - - O 1029,3 10
23.02.2018 11:00:00 0,2 -5,1 - - - 18 10 - - O 1029,2 10
23.02.2018 10:00:00 -0,5 -4,5 - - - 14 8 - - O 1028,9 10
23.02.2018 09:00:00 -2,7 -4,2 - - - 7 4 - - O 1028,7 10
23.02.2018 08:00:00 -4,0 -5,0 -2,4 0,6 3,6 7 4 - - O 1028,4 10
23.02.2018 07:00:00 -4,7 -5,5 - - - 7 4 - - O 1028,0 10
23.02.2018 06:00:00 -5,1 -5,7 - - - 7 4 - - O 1027,8 8
23.02.2018 05:00:00 -4,2 -5,0 - - - 7 4 - - OZO 1027,4 10
23.02.2018 04:00:00 -2,6 -3,6 - - - 7 4 - - O 1027,4 10
23.02.2018 03:00:00 -2,5 -3,3 - - - 4 2 - - NNO 1027,7 10
23.02.2018 02:00:00 -4,0 -4,7 - - - 4 2 - - N 1027,7 10
23.02.2018 01:00:00 -4,3 -5,1 - - - 7 4 - - NO 1027,8 10
23.02.2018 00:00:00 -3,6 -4,5 - - - 7 4 - - NO 1028,0 10
22.02.2018 23:00:00 -3,5 -4,0 - - - 7 4 - - NO 1028,1 10
22.02.2018 22:00:00 -3,3 -4,0 - - - 7 4 - - NO 1027,8 10
22.02.2018 21:00:00 -2,4 -3,1 - - - 7 4 - - NO 1027,6 9
22.02.2018 20:00:00 -2,1 -2,9 - - - 11 6 - - NO 1027,7 10
22.02.2018 19:00:00 -0,6 -1,9 - - - 11 6 - - ONO 1027,6 8
22.02.2018 18:00:00 0,7 -1,7 - - - 11 6 - - NO 1027,3 8
22.02.2018 17:00:00 1,7 -1,6 - - - 11 6 - - ONO 1027,3 8
22.02.2018 16:00:00 1,3 -0,9 - - - 4 2 - - ONO 1027,2 8
22.02.2018 15:00:00 1,7 -0,8 0,2 0,8 - 11 6 - - ONO 1027,5 7
22.02.2018 14:00:00 1,0 -0,7 - - - 7 4 - - ONO 1027,8 5
22.02.2018 13:00:00 1,0 -0,8 - - - 4 2 - - ZZW 1028,0 5
22.02.2018 12:00:00 0,7 -1,2 - - - 4 2 - - ZZW 1028,0 5
22.02.2018 11:00:00 0,1 -1,3 - - - 4 2 - - ZW 1027,8 4,2
22.02.2018 10:00:00 -0,1 -1,3 - - - 4 2 - - N 1027,8 3,2
22.02.2018 09:00:00 -0,5 -1,4 - - - 7 4 - - Z 1027,7 2,6
22.02.2018 08:00:00 -0,4 -1,8 0,1 0,9 3,7 7 4 - - ZO 1027,6 3,5
22.02.2018 07:00:00 -0,5 -1,8 - - - 7 4 - - ZW 1027,3 5
22.02.2018 06:00:00 -0,7 -1,7 - - - 4 2 - - WZW 1027,6 5
22.02.2018 05:00:00 -0,8 -1,8 - - - 4 2 - - Z 1027,7 6
22.02.2018 04:00:00 -1,0 -2,1 - - - 4 2 - - WNW 1027,8 8
22.02.2018 03:00:00 -1,0 -2,2 - - - 4 2 - - Z 1028,0 8
22.02.2018 02:00:00 -1,3 -2,3 - - - 4 2 - - ZW 1028,0 8
22.02.2018 01:00:00 -1,4 -2,4 - - - 4 2 - - ZZW 1028,5 8
22.02.2018 00:00:00 -1,9 -2,9 - - - 4 2 - - W 1028,6 8
21.02.2018 23:00:00 -2,6 -3,6 - - - 4 2 - - W 1028,4 10
21.02.2018 22:00:00 -3,4 -4,1 - - - 0 0 - - N 1028,5 10
21.02.2018 21:00:00 -4,1 -5,1 - - - 0 0 - - N 1028,4 12
21.02.2018 20:00:00 -3,5 -5,0 - - - 4 2 - - NNO 1028,2 12
21.02.2018 19:00:00 -2,0 -4,3 - - - 4 2 - - ZO 1027,8 12
21.02.2018 18:00:00 -0,9 -3,9 - - - 7 4 - - NO 1027,6 12
21.02.2018 17:00:00 2,3 -3,8 - - - 7 4 - - ONO 1027,3 12
21.02.2018 16:00:00 2,6 -2,4 - - - 11 6 - - O 1027,3 12
21.02.2018 15:00:00 2,6 -3,3 0,5 1,0 - 11 6 - - NO 1027,7 12
21.02.2018 14:00:00 2,3 -2,6 - - - 14 8 - - NNO 1028,3 12
21.02.2018 13:00:00 2,8 -2,9 - - - 14 8 - - NNO 1028,4 12
21.02.2018 12:00:00 2,6 -3,0 - - - 11 6 - - NO 1028,5 9
21.02.2018 11:00:00 2,0 -0,8 - - - 11 6 - - NO 1028,4 8
21.02.2018 10:00:00 -0,2 -1,4 - - - 4 2 - - NO 1028,2 8
21.02.2018 09:00:00 -2,5 -3,2 - - - 4 2 - - ONO 1027,7 7
21.02.2018 08:00:00 -5,4 -6,2 -1,0 1,2 3,7 4 2 - - NNO 1027,5 6
21.02.2018 07:00:00 -4,4 -5,1 - - - 4 2 - - ONO 1027,2 10
21.02.2018 06:00:00 -4,3 -5,0 - - - 4 2 - - ONO 1027,4 10
21.02.2018 05:00:00 -4,0 -4,9 - - - 7 4 - - N 1027,5 10
21.02.2018 04:00:00 -3,4 -4,7 - - - 7 4 - - ONO 1027,1 10
21.02.2018 03:00:00 -1,8 -4,3 - - - 7 4 - - NNO 1027,4 10
21.02.2018 02:00:00 -3,7 -4,8 - - - 7 4 - - ONO 1027,0 9
21.02.2018 01:00:00 -2,6 -4,3 - - - 7 4 - - NO 1027,0 9
21.02.2018 00:00:00 -2,2 -4,5 - - - 7 4 - - NO 1026,8 9
20.02.2018 23:00:00 -2,8 -4,6 - - - 7 4 - - NO 1026,2 9
20.02.2018 22:00:00 -2,8 -4,3 - - - 7 4 - - O 1025,6 9
20.02.2018 21:00:00 -1,3 -4,2 - - - 11 6 - - ONO 1025,4 9
20.02.2018 20:00:00 -0,8 -3,5 - - - 11 6 - - ONO 1025,1 9
20.02.2018 19:00:00 0,0 -3,6 - - - 11 6 - - O 1024,3 10
20.02.2018 18:00:00 1,1 -2,5 - - - 14 8 - - ONO 1023,7 9
20.02.2018 17:00:00 2,6 -3,3 - - - 22 12 - - ONO 1023,0 9
20.02.2018 16:00:00 3,1 -2,9 - - - 18 10 - - ONO 1022,7 10
20.02.2018 15:00:00 4,6 -3,1 7,0 3,6 - 18 10 - - ONO 1022,5 10
20.02.2018 14:00:00 5,2 -2,6 - - - 14 8 - - OZO 1022,3 8
20.02.2018 13:00:00 4,7 -2,6 - - - 14 8 - - O 1022,2 8
20.02.2018 12:00:00 4,0 -1,6 - - - 14 8 - - O 1022,0 7
20.02.2018 11:00:00 3,9 -1,0 - - - 14 8 - - OZO 1021,7 6
20.02.2018 10:00:00 2,4 -0,2 - - - 7 4 - - O 1021,5 4,5
20.02.2018 09:00:00 0,5 -0,1 - - - 7 4 - - OZO 1021,4 3,5
20.02.2018 08:00:00 0,0 -0,4 0,3 1,7 3,5 7 4 - - O 1021,0 2,5
20.02.2018 07:00:00 0,1 -0,3 - - - 7 4 - - O 1020,8 3,5
20.02.2018 06:00:00 0,4 0,0 - - - 4 2 - - O 1020,6 1,6
20.02.2018 05:00:00 0,6 0,2 - - - 7 4 - - ONO 1020,4 0,1
20.02.2018 04:00:00 0,8 0,4 - - - 7 4 - - O 1020,1 1,6
20.02.2018 03:00:00 1,2 0,7 - - - 7 4 - - O 1020,0 2,0
20.02.2018 02:00:00 2,0 1,6 - - - 7 4 - - ONO 1020,1 2,5
20.02.2018 01:00:00 1,8 1,3 - - - 4 2 - - NNO 1020,0 3,0
20.02.2018 00:00:00 1,6 1,0 - - - 7 4 - - ZO 1019,8 3,0
19.02.2018 23:00:00 1,9 1,2 - - - 4 2 - - W 1019,6 3,5
19.02.2018 22:00:00 2,2 1,3 - - - 0 0 - - N 1019,7 5
19.02.2018 21:00:00 2,5 1,5 - - - 4 2 - - O 1019,6 6
19.02.2018 20:00:00 2,9 1,2 - - - 4 2 - - ZZO 1019,4 7
19.02.2018 19:00:00 3,5 0,7 - - - 4 2 - - N 1019,6 7
19.02.2018 18:00:00 4,4 0,6 - - - 4 2 - - W 1019,4 7
19.02.2018 17:00:00 5,3 0,0 - - - 7 4 - - ZW 1019,4 7
19.02.2018 16:00:00 5,8 0,2 - - - 7 4 - - ZZW 1019,3 6
19.02.2018 15:00:00 6,1 0,4 7,8 2,4 - 11 6 - - ZW 1019,4 6
19.02.2018 14:00:00 5,6 0,0 - - - 11 6 - - ZW 1019,6 6
19.02.2018 13:00:00 4,9 -0,1 - - - 7 4 - - ZZW 1020,0 6
19.02.2018 12:00:00 4,5 -0,1 - - - 7 4 - - N 1020,1 6
19.02.2018 11:00:00 2,7 -1,1 - - - 7 4 - - ZZW 1020,2 5
19.02.2018 10:00:00 1,5 -1,2 - - - 7 4 - - N 1020,4 5
19.02.2018 09:00:00 0,2 -1,6 - - - 4 2 - - ZO 1020,8 5
19.02.2018 08:00:00 0,0 -2,1 0,2 0,8 3,4 7 4 - - Z 1020,8 8
19.02.2018 07:00:00 -0,3 -2,4 - - - 7 4 - - Z 1020,8 8
19.02.2018 06:00:00 -0,3 -2,3 - - - 4 2 - - N 1020,9 8

tt = temperatuur
td = dauwpunt
tt -5cm = temperatuur -5cm
tt -20cm = temperatuur -20cm
tt -100cm = temperatuur -100cm
ff = windsnelheid
fx = windstoten
dd = windrichting
ppp = luchtdruk
vv = zicht

Weerstations in de omgeving